Погода в Среднебелой

Россия / Амурская область     50°39′32″N   128°00′25″E
темп.,
°C
ветер,
м/с
пор.,
м/с
влажн.,
%
обл.,
%
осадки,
мм/ч
давл.,
гПа
погр.,
м
16 мая, вс
вс1600:00+9з5127543 0.0 1000283
03:00+8з512665 0.0 1000260
06:00+8з411680 0.0 1001333
09:00+14зсз58430 0.0 10011083
12:00+19зсз68260 0.0 10002332
15:00+21зсз58235 0.0 9983032
18:00+21юз23285 0.0 997247
21:00+14ююв344396 0.0 99744
17 мая, пн
пн1700:00+12юз33480 0.0 99743
03:00+11зюз34485 0.0 99755
06:00+11зюз38545 0.0 997192
09:00+17сз68435 0.0 9981107
12:00+20сз793062 0.0 9992551
15:00+19сз78205 0.0 10002515
18:00+18с5624100 0.0 10001115
21:00+11св4104079 0.0 1000196
18 мая, вт
вт1800:00+11всв3845100 0.0 999279
03:00+9ссв71163100 0.2 1000533
06:00+7св7126899 0.0 997659
09:00+10ссв456591 0.0 998777
12:00+14сз3451100 0.0 9981663
15:00+15сз684669 0.0 10001929
18:00+14ссз674777 0.0 10011139
21:00+10ссв356321 0.0 100476
19 мая, ср
ср1900:00+9зсз1260100 0.0 100513
03:00+7ссз33634 0.0 100747
06:00+6с236317 0.0 1007102
09:00+11юв22465 0.0 1008619
12:00+17ююз363674 0.0 10062643
15:00+20юз372492 0.0 10043123
18:00+20з46285 0.0 10032313
21:00+14юв464485 0.0 100381
20 мая, чт
чт2000:00+14ю51443100 0.0 1002302
03:00+13ю71545100 0.0 1000417
06:00+12ю61152100 0.2 1000423
09:00+15ююз495544 0.6 999722
12:00+22з4739100 0.0 9992560
15:00+20ссв6543100 0.0 999581
18:00+20ссв554695 0.0 1001826
21:00+17с61247100 0.0 1004529